GFSFLT2_850_spd_357.txt.gz
Wind_Speed
14 14 13 11 10 8 7 6 6 6 6 7 8 9 10 10 10 11 11 12 12 13 14 14 14 15 14
15 15 14 12 10 8 7 6 5 6 7 8 8 9 9 10 10 11 12 12 12 13 14 14 15 15 14
14 16 15 13 10 9 7 6 6 7 7 8 8 9 10 10 11 12 13 13 14 14 15 15 17 17 15
13 15 15 13 11 9 7 6 6 6 7 8 8 10 11 12 13 14 15 16 15 15 12 13 16 16 16
14 15 14 13 11 8 7 6 6 7 7 9 10 12 13 14 15 16 16 17 17 14 12 11 13 15 16
14 14 13 11 10 9 7 7 7 8 8 10 12 13 15 16 17 16 16 15 15 15 16 14 13 13 14
11 12 11 10 10 8 7 8 8 9 10 12 14 14 15 15 14 14 15 16 16 16 14 15 18 19 19
11 10 10 10 8 8 8 8 9 11 13 14 16 14 11 13 13 14 16 15 14 13 16 24 22 22 21
10 9 8 8 8 8 8 9 11 13 14 13 12 14 14 12 10 12 9 13 15 21 23 21 22 22 23
9 8 9 8 8 9 10 11 12 12 11 11 13 15 12 11 5 13 19 18 19 20 20 19 19 20 21
9 9 9 9 10 11 12 12 12 11 14 15 16 18 17 20 21 19 19 18 19 18 18 16 15 19 23
10 10 10 11 12 13 13 12 12 12 14 16 19 19 21 25 27 24 23 21 21 20 17 21 20 20 20
11 11 12 13 13 13 13 13 13 15 16 17 20 21 23 25 27 26 26 24 21 19 25 24 24 24 25
12 13 14 14 15 15 14 15 16 14 15 18 20 22 23 23 25 26 23 25 24 24 25 26 25 24 25
14 15 16 16 16 16 17 18 18 17 15 15 19 22 24 24 26 24 24 25 24 25 26 27 26 26 26
17 18 18 17 17 18 19 19 20 18 18 19 20 22 23 23 23 22 23 25 25 24 26 30 31 27 27
20 20 20 19 20 20 20 22 22 22 21 21 22 23 25 28 27 21 25 24 26 27 27 28 32 30 29

GFSFLT2_850_spd_363.txt.gz
Wind_Speed
16 17 19 18 18 16 13 11 10 8 6 5 5 6 7 8 9 9 9 9 9 10 10 12 13 14 13
15 17 19 19 19 17 15 13 11 8 6 5 7 8 8 8 8 9 10 10 10 11 11 13 14 14 14
16 18 20 21 20 18 16 15 12 8 8 8 8 8 8 8 9 9 11 12 12 14 15 16 16 16 14
18 19 21 21 20 19 18 16 13 11 10 9 8 8 9 9 10 11 13 14 15 15 16 16 16 16 14
19 21 22 23 23 19 17 15 13 12 11 9 9 10 9 11 12 13 15 16 17 16 15 15 15 16 16
18 20 21 20 21 19 19 16 13 12 11 11 9 11 12 13 13 15 16 16 14 14 16 17 17 14 16
15 17 19 19 20 18 18 14 14 10 9 10 12 11 14 14 14 15 16 14 14 15 16 15 16 20 21
16 16 16 17 17 15 15 16 13 11 11 9 14 12 15 15 14 15 15 14 14 14 20 19 20 21 20
17 16 15 16 15 15 15 13 12 12 12 12 14 15 14 13 16 13 15 12 14 20 20 19 20 20 19
18 17 17 17 16 16 14 13 12 11 14 12 14 12 9 13 12 10 13 16 18 19 19 19 20 21 18
16 17 17 16 15 14 13 13 13 13 15 14 14 14 14 15 16 15 18 17 17 18 18 18 18 17 22
17 15 15 14 14 14 14 14 14 16 16 16 16 15 17 19 19 17 18 18 20 19 19 15 18 21 21
17 16 16 16 15 15 14 14 15 15 16 17 17 17 19 20 21 20 22 21 21 17 19 22 22 22 24
14 16 17 16 15 15 15 16 16 16 16 17 18 19 20 19 21 22 20 23 22 22 24 25 23 23 25
19 17 16 17 17 16 16 18 18 18 18 19 18 19 21 21 24 22 23 24 23 23 24 27 25 24 27
18 18 18 18 18 18 18 19 20 20 20 19 21 23 24 24 23 20 20 23 24 24 25 30 32 28 28
19 19 20 20 20 21 21 22 22 22 22 21 22 23 25 28 26 23 23 23 26 28 28 30 33 34 32

GFSFLT2_850_spd_366.txt.gz
Wind_Speed
18 19 20 22 22 18 16 15 13 12 12 9 7 6 6 6 5 4 4 4 5 6 7 9 10 11 12
19 19 20 21 20 20 18 17 14 13 11 9 9 7 6 6 6 6 6 6 7 8 9 11 12 13 13
20 19 20 22 22 22 20 18 15 13 12 11 9 8 7 7 8 8 8 9 10 11 12 14 14 13 12
21 21 21 22 22 22 22 21 16 15 14 11 10 9 8 9 9 9 11 11 13 13 14 14 14 13 13
22 23 24 23 25 23 22 19 18 17 15 13 11 10 10 11 10 11 13 14 14 13 14 14 14 14 14
25 23 22 20 21 23 22 23 20 18 16 15 12 12 11 11 12 13 15 14 13 13 14 14 14 14 15
28 27 27 24 19 24 23 19 18 13 15 15 13 12 13 13 13 14 16 13 13 14 14 14 17 17 17
27 27 26 20 18 21 21 20 18 16 14 14 14 14 15 14 15 15 15 13 14 15 13 18 19 18 17
25 24 21 18 20 21 22 21 20 18 16 14 16 16 15 16 16 15 15 15 13 14 18 19 19 19 17
25 23 23 23 23 20 17 19 20 18 17 17 15 14 11 13 14 13 11 14 17 18 18 18 20 21 18
23 22 21 21 20 19 19 19 18 18 15 14 13 14 14 15 15 15 16 17 16 18 19 18 19 20 19
22 22 21 20 18 17 18 18 17 16 16 15 16 16 17 17 16 16 17 17 19 20 19 19 16 18 21
24 22 19 16 17 18 17 17 16 16 16 16 17 17 18 19 18 17 18 18 19 16 17 20 21 21 23
22 21 20 19 18 16 17 16 16 16 16 17 17 18 18 18 19 17 16 20 20 22 24 24 22 21 23
20 20 18 16 17 18 16 16 16 15 16 17 16 18 19 20 21 19 18 20 19 21 23 26 25 21 24
19 16 16 18 18 16 16 16 16 17 17 17 18 21 22 21 21 18 18 20 20 21 23 29 31 28 27
17 17 17 17 18 18 18 18 18 18 18 18 20 22 24 26 24 20 22 19 22 24 26 28 33 31 30

GFSFLT2_850_spd_372.txt.gz
Wind_Speed
29 30 31 31 31 31 29 27 24 23 22 21 19 18 17 16 14 13 13 12 11 11 10 11 11 11 12
29 30 32 31 31 31 30 28 26 24 22 23 21 19 18 16 15 14 14 13 12 12 12 12 13 13 14
32 30 30 32 32 33 31 29 27 25 25 23 21 20 19 17 16 15 14 14 14 14 13 14 15 15 15
34 32 31 33 34 34 34 32 30 28 28 22 22 21 20 18 17 16 15 15 14 14 15 15 15 15 15
37 37 33 35 38 37 34 31 30 30 26 24 22 22 21 19 17 16 16 15 15 16 16 16 16 16 16
43 42 40 39 39 39 36 34 33 33 29 25 25 23 21 19 17 16 16 16 16 16 17 17 17 17 16
43 42 42 40 40 39 37 36 36 29 27 28 26 22 21 20 17 17 18 17 17 17 17 18 18 18 18
39 38 36 34 33 32 33 34 33 28 26 26 26 24 22 18 19 20 19 18 18 17 18 19 19 17 20
43 40 35 33 30 33 36 35 36 35 33 29 23 23 24 24 19 22 19 19 20 18 20 20 19 20 22
42 39 37 35 33 33 34 37 38 34 34 30 28 27 21 19 21 21 20 22 21 18 18 20 21 22 22
37 35 33 33 33 34 33 33 34 35 25 30 27 24 17 11 12 15 19 18 19 20 22 22 21 23 24
37 35 34 34 32 31 30 29 27 23 21 17 21 19 19 20 21 20 18 18 20 21 22 22 22 24 22
39 37 35 32 31 30 30 26 24 22 20 18 17 18 19 20 19 19 19 18 21 21 22 19 18 22 23
40 37 33 32 32 30 30 30 29 26 23 21 20 19 19 19 18 19 17 16 16 17 20 20 19 20 21
39 36 35 33 31 30 30 31 30 26 22 19 18 18 19 18 18 16 16 19 18 19 20 20 18 19 21
36 35 36 35 33 32 30 29 25 23 20 19 18 18 18 17 17 15 16 17 16 18 19 21 22 20 23
33 34 35 34 34 33 30 27 23 21 20 18 17 17 17 18 15 15 16 15 15 16 18 21 25 24 24

GFSFLT2_850_spd_375.txt.gz
Wind_Speed
26 34 34 33 35 34 33 30 29 27 25 24 24 21 19 19 17 16 14 14 14 14 14 15 14 12 13
30 29 33 35 34 35 35 33 32 31 29 26 25 25 23 21 18 17 16 16 16 16 16 15 15 15 15
35 32 32 34 36 37 37 35 34 33 30 29 28 27 25 23 21 19 19 18 17 17 17 16 16 17 17
39 37 35 36 37 38 40 40 38 36 32 33 28 28 26 24 23 20 20 19 18 17 18 17 17 18 18
46 43 38 40 42 41 42 39 37 35 35 35 32 25 25 25 24 21 20 20 19 18 18 19 19 19 18
45 46 45 46 41 42 42 41 40 40 37 36 30 28 27 26 23 22 21 20 19 19 19 19 20 20 19
55 54 52 48 43 44 44 45 44 40 38 37 34 33 29 26 25 23 22 20 19 20 19 20 20 20 20
50 51 46 47 44 42 41 40 39 39 35 33 36 35 30 28 25 25 24 22 21 21 19 20 21 20 21
49 45 45 47 42 38 42 41 41 42 39 37 33 33 32 32 29 27 26 24 21 22 20 20 19 21 21
52 50 49 47 46 41 41 42 43 42 43 41 38 34 30 32 29 29 27 22 21 20 19 17 19 20 22
54 52 49 47 46 45 43 41 43 45 36 39 39 35 30 12 29 30 24 24 23 22 21 21 22 25 25
57 54 50 48 47 44 42 39 38 37 33 32 31 33 32 27 16 19 20 20 20 21 22 23 24 25 25
56 53 52 48 44 41 38 35 34 31 30 27 23 23 26 26 24 20 19 20 20 22 21 22 24 23 20
53 50 48 47 45 40 39 37 35 33 29 24 23 23 22 21 20 19 19 17 18 16 17 18 20 22 22
51 50 47 46 41 38 39 40 39 38 34 30 28 24 23 22 21 19 18 20 19 19 21 20 18 20 20
49 48 47 47 43 42 39 39 37 35 32 30 27 25 23 21 19 18 19 18 18 20 19 19 18 18 20
47 43 42 42 41 40 38 36 33 32 30 27 26 24 23 21 17 16 15 15 16 18 18 19 20 19 21